Flight Track Log - Related Links

Times and Time Zones

All times are in EDT time to prevent confusion due to time zone crossing. See the SWA253 flight status page for this flight to view local times or setup timezone preferences in your user account.

Time Position Orientation Groundspeed Altitude Reporting Facility
EDT Latitude Longitude Course Direction KTS MPH feet Rate Location/Type
Tue 10:42:43 PM 37.7186 -122.2381 150° Southeast 139 160 27,000  Level Oakland Center
Tue 10:43:44 PM 37.7442 -122.2867 304° West 186 214 4,000 -9,246 Descending Oakland Center
Tue 10:44:45 PM 37.7544 -122.3633 280° West 240 276 8,200 3,869 Climbing Oakland Center
Tue 10:45:31 PM 37.7167 -122.4167 228° Southwest 303 349 10,900 3,161 Climbing Northern Cal TRACON
Tue 10:46:37 PM 37.6167 -122.3333 147° Southeast 372 428 14,100 2,913 Climbing Northern Cal TRACON
Tue 10:47:49 PM 37.5344 -122.2475 140° Southeast 375 432 17,600 2,481 Climbing Oakland Center
Tue 10:48:00 PM 37.3232 -122.3570 150° Southeast  Level FlightAware Approximate
Tue 10:48:50 PM 37.4458 -122.1567 141° Southeast 404 465 19,600  Level Oakland Center
Tue 10:49:51 PM 37.3544 -122.0647 141° Southeast 418 481 22,900 3,344 Climbing Oakland Center
Tue 10:50:52 PM 37.2625 -121.9733 142° Southeast 423 487 26,400 2,016 Climbing Oakland Center
Tue 10:51:53 PM 37.1508 -121.8594 141° Southeast 435 501 27,000 295 Climbing Oakland Center
Tue 10:52:54 PM 37.0481 -121.7581 142° Southeast 467 537 27,000  Level Oakland Center
Tue 10:53:55 PM 36.9464 -121.6558 141° Southeast 470 541 27,000  Level Oakland Center
Tue 10:54:57 PM 36.8439 -121.5531 141° Southeast 473 544 27,000  Level Oakland Center
Tue 10:55:57 PM 36.7383 -121.4469 141° Southeast 471 542 27,000  Level Oakland Center
Tue 10:56:59 PM 36.6361 -121.3458 142° Southeast 469 540 27,000  Level Oakland Center
Tue 10:58:00 PM 36.5347 -121.2450 141° Southeast 469 540 27,000  Level Oakland Center
Tue 10:59:01 PM 36.4303 -121.1453 142° Southeast 472 543 27,000  Level Oakland Center
Tue 11:00:02 PM 36.3267 -121.0447 142° Southeast 473 544 27,000  Level Oakland Center
Tue 11:01:03 PM 36.2239 -120.9433 141° Southeast 473 544 27,000  Level Oakland Center
Tue 11:02:04 PM 36.1186 -120.8419 142° Southeast 477 549 27,000  Level Oakland Center
Tue 11:03:05 PM 36.0142 -120.7406 142° Southeast 478 550 27,000  Level Oakland Center
Tue 11:04:06 PM 35.9097 -120.6406 142° Southeast 477 549 27,000  Level Oakland Center
Tue 11:05:07 PM 35.7831 -120.5183 142° Southeast 481 554 27,000  Level Oakland Center
Tue 11:06:09 PM 35.6758 -120.4169 142° Southeast 484 557 27,000  Level Oakland Center
Tue 11:07:10 PM 35.5700 -120.3161 142° Southeast 480 552 27,000  Level Oakland Center
Tue 11:08:11 PM 35.4669 -120.2178 142° Southeast 483 556 27,000  Level Oakland Center
Tue 11:09:12 PM 35.3531 -120.1086 142° Southeast 485 558 27,000  Level Oakland Center
Tue 11:10:13 PM 35.2453 -120.0072 142° Southeast 485 558 27,000  Level Oakland Center
Tue 11:11:14 PM 35.1389 -119.9075 143° Southeast 482 555 27,000 -246 Level Oakland Center
Tue 11:12:15 PM 35.0414 -119.7956 137° Southeast 479 551 26,500 -1,426 Descending Oakland Center
Tue 11:13:16 PM 34.9547 -119.6767 132° Southeast 469 540 24,100 -2,311 Descending Oakland Center
Tue 11:14:17 PM 34.8708 -119.5639 132° Southeast 456 525 21,800 -2,262 Descending Oakland Center
Tue 11:15:18 PM 34.7897 -119.4547 132° Southeast 442 509 19,500 -2,115 Descending Oakland Center
Tue 11:16:19 PM 34.7133 -119.3503 132° Southeast 423 487 17,500 -2,115 Descending Oakland Center
Tue 11:17:20 PM 34.6378 -119.2494 132° Southeast 408 470 15,200 -2,262 Descending Oakland Center

Login

Don't have an account? Register now (free) for customized features, flight alerts, and more!